Location: Newark
(22.3060°N, 114.2134°E)
Time: 02:52:13
(UTC+00:00)

Vanguard 2 - Pass Details

Date: 12 August 2021
Orbit: 553 x 2937 km, 32.9° (Epoch: 27 September)

Event Time Altitude Azimuth Distance (km) Brightness Sun altitude
Rises 23:42:21 0° 283° (WNW) 2,806 9.9 22.4°
Reaches altitude 10° 23:44:31 10° 272° (W) 2,015 9.2 22.9°
Maximum altitude 23:48:36 33° 207° (SSW) 1,277 8.6 23.8°
Drops below altitude 10° 23:54:20 10° 145° (SE) 2,862 10.9 25.1°
Sets 23:58:01 0° 137° (SE) 4,216 11.8 26.0°
